Weather History for Sidney, NE

Change the Weather History Date:

Sunday, December 1, 2013

  Actual Average Record
Temperature  
Mean Temperature 42 °F 31 °F  
Max Temperature 57 °F 44 °F 68 °F (1970)
Min Temperature 26 °F 18 °F -16 °F (1985)
Degree Days  
Heating Degree Days 23 34  
Month to date heating degree days 23 34  
Since 1 July heating degree days 1515 1456  
Cooling Degree Days 0 0  
Month to date cooling degree days 0 0  
Year to date cooling degree days 918 830  
Moisture  
Dew Point 25 °F    
Average Humidity 58    
Maximum Humidity 85    
Minimum Humidity 30    
Precipitation  
Precipitation 0.00 in 0.02 in 0.12 in (1964)
Month to date precipitation 0.00 0.02  
Year to date precipitation 16.82 18.02  
Sea Level Pressure  
Sea Level Pressure 30.00 in    
Wind  
Wind Speed 12 mph (West)    
Max Wind Speed 30 mph    
Max Gust Speed 37 mph    
Visibility 10 miles    
Events      
T = Trace of Precipitation, MM = Missing Value Source: NWS Daily Summary

Daily Weather History Graph

Daily Weather History Graph

Search for Another Location

Airport:

Trip Planner

Search our weather history database for the weather conditions in past years. The results will help you decide how hot, cold, wet, or windy it might be!

Date:

Astronomy

Dec. 01, 2013 Rise Set
Actual Time 6:58 AM MST 4:24 PM MST
Civil Twilight 6:27 AM MST 4:54 PM MST
Nautical Twilight 5:53 AM MST 5:28 PM MST
Astronomical Twilight 5:19 AM MST 6:02 PM MST
Moon 5:17 AM MST (12/1) 3:36 PM MST (12/1)
Length of Visible Light 10h 27m
Length of Day
9h 25m
Waning Crescent, 2% of the Moon is Illuminated
Dec 1
Waning Crescent
Dec 2
New
Dec 9
First Quarter
Dec 17
Full
Dec 25
Last Quarter

Hourly Weather History & Observations

Time (MST) Temp. Windchill Dew Point Humidity Pressure Visibility Wind Dir Wind Speed Gust Speed Precip Events Conditions
12:53 AM 28.0 °F 22.8 °F 24.1 °F 85% 30.12 in 10.0 mi SW 4.6 mph - N/A   Overcast
1:53 AM 30.9 °F 27.5 °F 25.0 °F 79% 30.11 in 10.0 mi West 3.5 mph - N/A   Overcast
2:53 AM 28.9 °F 19.8 °F 23.0 °F 78% 30.11 in 10.0 mi WSW 10.4 mph - N/A   Mostly Cloudy
3:53 AM 30.0 °F 21.7 °F 25.0 °F 82% 30.12 in 10.0 mi WSW 9.2 mph - N/A   Overcast
4:53 AM 34.0 °F 26.0 °F 24.1 °F 67% 30.13 in 10.0 mi West 10.4 mph - N/A   Clear
5:53 AM 33.1 °F 23.9 °F 23.0 °F 66% 30.17 in 10.0 mi West 12.7 mph - N/A   Clear
6:53 AM 33.1 °F 23.9 °F 23.0 °F 66% 30.16 in 10.0 mi West 12.7 mph - N/A   Clear
7:53 AM 39.9 °F 32.9 °F 25.0 °F 55% 30.15 in 10.0 mi West 11.5 mph - N/A   Clear
8:53 AM 39.0 °F 32.8 °F 27.0 °F 62% 30.16 in 10.0 mi WNW 9.2 mph - N/A   Clear
9:53 AM 48.9 °F - 28.0 °F 44% 30.11 in 10.0 mi WNW 21.9 mph - N/A   Clear
10:53 AM 53.1 °F - 28.0 °F 38% 30.07 in 10.0 mi WNW 18.4 mph - N/A   Clear
11:53 AM 55.0 °F - 27.0 °F 34% 30.01 in 10.0 mi NW 23.0 mph 32.2 mph N/A   Clear
12:53 PM 55.9 °F - 27.0 °F 33% 29.98 in 10.0 mi WNW 23.0 mph - N/A   Clear
1:53 PM 55.9 °F - 25.0 °F 30% 29.94 in 10.0 mi WNW 23.0 mph 27.6 mph N/A   Partly Cloudy
2:53 PM 55.0 °F - 25.0 °F 31% 29.93 in 10.0 mi NW 17.3 mph 23.0 mph N/A   Clear
3:53 PM 50.0 °F - 25.0 °F 38% 29.93 in 10.0 mi WNW 12.7 mph - N/A   Partly Cloudy
4:53 PM 39.9 °F 35.8 °F 24.1 °F 53% 29.92 in 10.0 mi West 5.8 mph - N/A   Clear
5:53 PM 41.0 °F 36.4 °F 26.1 °F 55% 29.90 in 10.0 mi WSW 6.9 mph - N/A   Scattered Clouds
6:53 PM 45.0 °F 39.3 °F 25.0 °F 46% 29.87 in 10.0 mi West 11.5 mph - N/A   Scattered Clouds
7:53 PM 39.9 °F 34.5 °F 25.0 °F 55% 29.86 in 10.0 mi WSW 8.1 mph - N/A   Partly Cloudy
8:53 PM 42.1 °F 35.7 °F 24.1 °F 49% 29.85 in 10.0 mi West 11.5 mph - N/A   Clear
9:53 PM 43.0 °F 37.7 °F 24.1 °F 47% 29.81 in 10.0 mi WSW 9.2 mph - N/A   Overcast
10:53 PM 43.0 °F 37.2 °F 26.1 °F 51% 29.78 in 10.0 mi West 10.4 mph - N/A   Overcast
11:53 PM 42.1 °F 36.1 °F 28.0 °F 58% 29.76 in 10.0 mi West 10.4 mph - N/A   Partly Cloudy